Regional Weather Roundup
Issued by NWS Northern Indiana

Home | Current Version | Previous Version | Text Only | Print | Product List | Glossary On
Versions: 1 2 3 4 5 6 7 8 9 10 11 12 13 14 15 16 17 18 19 20 21 22 23 24 25 26 27 28 29 30 31 32 33 34 35 36 37 38 39 40 41 42 43 44 45 46 47 48 49 50
000
ASUS43 KIWX 251210
RWRIWX

KIWX WEATHER ROUNDUP
NATIONAL WEATHER SERVICE NORTHERN INDIANA
700 AM EST SUN JAN 25 2015

NOTE: "FAIR" INDICATES FEW OR NO CLOUDS BELOW 12,000 FEET WITH NO
SIGNIFICANT WEATHER AND/OR OBSTRUCTIONS TO VISIBILITY.

* THESE STATIONS ARE NOT UNDER NWS QUALITY CONTROL. THEY ALSO MAY NOT
  REPORT WEATHER SUCH AS PRECIPITATION OR FOG.

INZ001>027-251300-
NORTHERN INDIANA

CITY           SKY/WX    TMP DP  RH WIND       PRES   REMARKS
GARY*          CLOUDY    36  30  80 NE13      29.70S FOG
VALPARAISO     CLOUDY    33  31  92 NE8       29.69S FOG     WCI  26
6HR MIN TEMP:  30; 6HR MAX TEMP:  33;

MICHIGAN CITY* CLOUDY    32  32 100 NE5       29.71S FOG     WCI  27
LAPORTE*       CLOUDY    36  35  96 NE6       29.70S FOG
6HR MIN TEMP:  34; 6HR MAX TEMP:  36;

KNOX*          CLOUDY    33  29  85 NE8       29.68S WCI  27
6HR MIN TEMP:  -9; 6HR MAX TEMP:  81;

SOUTH BEND     CLOUDY    35  31  85 NE5       29.72R FOG     WCI  31
6HR MIN TEMP:  34; 6HR MAX TEMP:  36;

GOSHEN         CLOUDY    35  33  92 E6        29.70R FOG     WCI  30
6HR MIN TEMP:  34; 6HR MAX TEMP:  36;

MONTICELLO*    CLOUDY    33  32  95 E3        29.66R
6HR MIN TEMP:  30; 6HR MAX TEMP:  34;

LOGANSPORT*    CLOUDY    32  32 100 E6        29.67S WCI  26
ROCHESTER*     CLOUDY    34  34 100 NE3       29.69R FOG
WARSAW*        CLOUDY    34  32  93 NE5       29.69S FOG     WCI  30
ANGOLA*        CLOUDY    34  25  69 E3        29.71R
FORT WAYNE     CLOUDY    33  31  92 E5        29.71R WCI  29
6HR MIN TEMP:  32; 6HR MAX TEMP:  35;

HUNTINGTON*    CLOUDY    32  28  86 CALM      29.69S
6HR MIN TEMP:  32; 6HR MAX TEMP:  35;

PERU/GRISSOM   CLOUDY    33  31  94 E6        29.66F WCI  27
6HR MIN TEMP:  30; 6HR MAX TEMP:  33;

MARION*        CLOUDY    32  31  96 SE5       29.69S WCI  27
6HR MIN TEMP:  -2; 6HR MAX TEMP:  46;


$$
INZ028>050-251300-
CENTRAL INDIANA

CITY           SKY/WX    TMP DP  RH WIND       PRES   REMARKS
LAFAYETTE      CLOUDY    32  30  92 NE5       29.65S WCI  27
6HR MIN TEMP:  30; 6HR MAX TEMP:  35;

KOKOMO*        CLOUDY    34  30  86 E7        29.67S WCI  28
6HR MIN TEMP:  30; 6HR MAX TEMP:  34;

MUNCIE*        CLOUDY    33  30  88 SE6       29.68S WCI  28
6HR MIN TEMP:  33; 6HR MAX TEMP:  36;

INDIANAPOLIS   CLOUDY    32  30  92 SE6       29.65F WCI  26
6HR MIN TEMP:  31; 6HR MAX TEMP:  34;


$$
MIZ043>046-050>051-056>058-064>065-071>073-077>080-251300-
SOUTHWEST LOWER MICHIGAN

CITY           SKY/WX    TMP DP  RH WIND       PRES   REMARKS
BATTLE CREEK   CLOUDY    34  29  82 NE12      29.74R WCI  25
6HR MIN TEMP:  34; 6HR MAX TEMP:  37;

BENTON HARBOR  CLOUDY    34  33  96 E8        29.73R FOG     WCI  27
6HR MIN TEMP:  33; 6HR MAX TEMP:  34;

COLDWATER*     CLOUDY    33  32  95 MISG      29.72R FOG
6HR MIN TEMP:  33; 6HR MAX TEMP:  34;

HILLSDALE*     CLOUDY    34  34  99 NE10      29.72R FOG     WCI  26
6HR MIN TEMP:  34; 6HR MAX TEMP:  36;

HOLLAND        CLOUDY    32  25  75 NE13      29.77R WCI  22
6HR MIN TEMP:  32; 6HR MAX TEMP:  37; 6HR PCP: TRACE;

GRAND RAPIDS   CLOUDY    27  20  75 NE22      29.80R WCI  13
6HR MIN TEMP:  27; 6HR MAX TEMP:  35; 6HR PCP: TRACE;

KALAMAZOO      CLOUDY    33  29  85 NE13G20   29.74R WCI  24
6HR MIN TEMP:  33; 6HR MAX TEMP:  36;

STURGIS*       CLOUDY    34  34 100 NE9       29.71R FOG     WCI  26
THREE RIVERS*  CLOUDY    34  32  92 E12       29.72R FOG     WCI  26

$$
OHZ001>008-015>018-024>025-251300-
NORTHWEST OHIO

CITY           SKY/WX    TMP DP  RH WIND       PRES   REMARKS
WAUSEON*       CLOUDY    34  34 100 NE6       29.74R FOG     WCI  29
DEFIANCE       CLOUDY    35  32  88 CALM      29.73S
6HR MIN TEMP:  35; 6HR MAX TEMP:  37;

FINDLAY        CLOUDY    35  31  85 S3        29.72S
6HR MIN TEMP:  35; 6HR MAX TEMP:  37;

TOLEDO EXPRESS CLOUDY    34  32  92 NE3       29.74R FOG
6HR MIN TEMP:  33; 6HR MAX TEMP:  35;

TOLEDO METCALF CLOUDY    35  31  85 NE3       29.76R
6HR MIN TEMP:  34; 6HR MAX TEMP:  35;

LIMA           CLOUDY    35  30  82 CALM      29.71R
6HR MIN TEMP:  35; 6HR MAX TEMP:  37;


$$
AND FOR LAKE MICHIGAN COASTAL AND OPEN LAKE BUOY OBSERVATIONS

STATION/POSITION TEMP    WIND        PRES    VSBY  WAVE
                 AIR SEA DIR/SP/G                  HT/PER
                 (F)     (DEG/KT/KT) (MB)    (MI)  (FT/S)
CALUMET HARBOR    33      20/  7/ 10   N/A
MICHIGAN CITY     33      30/  7/  7   N/A
SAINT JOSEPH      35      50/  2/  5 1007.8R

$$
&&



USA.gov is the U.S. government's official web portal to all federal, state and local government web resources and services.